Flag for French Polynesia Weather past 2 weeks in Gambier Islands, French Polynesia

Now
65 °F

Passing clouds.


Feels Like: 65 °F
Forecast: 66 / 70 °F
Wind: 16 mph from South

Location: Rikitea

Current Time: Sep 3, 2015 at 7:09:56 AM

Latest Report: Sep 3, 2015 at 6:00 AM


Visibility: 16 mi

Pressure: 30.07 "Hg

Humidity: 73%

Dew point: 56 °F

Location of Gambier IslandsLocation

Historic Weather in Gambier Islands — Graph

°F

Gambier Islands temperature yesterday

Maximum temperature yesterday: 72 °F (at 12:00 AM)
Minimum temperature yesterday: 64 °F (at 9:00 PM)
Average temperature yesterday: 67 °F

Past Weeks' High & Low Weather Summary

 TemperatureHumidityPressure
High78 °F (Aug 19, 12:00 PM)100% (Aug 19, 8:00 PM)30.24 "Hg (Aug 19, 8:00 PM)
Low61 °F (Aug 26, 5:00 AM)52% (Aug 22, 3:00 PM)29.74 "Hg (Aug 19, 4:00 PM)
Average69 °F80%30.03 "Hg
* Reported Aug 19 5:00 AM — Sep 3 5:00 AM, Gambier Islands, Weather by CustomWeather, © 2015

Note: Actual official high and low records may vary slightly from our data, if they occured in-between our weather recording intervals... More about our weather records

Advertising

Gambier Islands weather history for previous 24 hours

 ConditionsComfort  
Time TempWeatherWind HumidityBarometerVisibility
5:00 AM
Thu, Sep 3
64 °FMild.13 mph68%30.05 "HgN/A
4:00 AM64 °FMild.12 mph72%30.04 "HgN/A
3:00 AM64 °FMild.12 mph70%30.06 "HgN/A
2:00 AM64 °FMild.12 mph69%30.06 "HgN/A
1:00 AM64 °FMild.12 mph70%30.07 "HgN/A
12:00 AM63 °FMild.12 mph71%30.08 "HgN/A
11:00 PM
Wed, Sep 2
64 °FMild.13 mph73%30.08 "HgN/A
10:00 PM64 °FMild.12 mph77%30.09 "HgN/A
9:00 PM64 °FMild.14 mph77%30.08 "HgN/A
8:00 PM65 °FMild.14 mph78%30.06 "HgN/A
6:00 PM65 °FMild.14 mph86%30.03 "HgN/A
5:00 PM65 °FOvercast.15 mph90%30.01 "Hg7 mi
4:00 PM66 °FOvercast.14 mph94%29.99 "Hg12 mi
3:00 PM65 °FOvercast.14 mph100%29.98 "Hg6 mi
2:00 PM67 °FOvercast.13 mph99%29.99 "Hg9 mi
1:00 PM69 °FOvercast.7 mph93%30.01 "Hg7 mi
11:00 AM70 °FOvercast.3 mph88%30.03 "Hg9 mi
10:00 AM71 °FOvercast.2 mph89%30.03 "Hg9 mi
9:00 AM69 °FOvercast.3 mph93%30.03 "Hg6 mi
8:00 AM68 °FOvercast.6 mph90%30.00 "Hg12 mi
7:00 AM66 °FOvercast.6 mph96%29.99 "Hg12 mi
Weather by CustomWeather, © 2015

See weather overviewHow to use our weather pages